Weather History for PAQT - May, 2013

Change the Weather History Date:

Saturday, May 11, 2013

  Actual Average (PAKU) Record (PAKU)
Temperature  
Mean Temperature 22 °F -  
Max Temperature 33 °F 22 °F 39 °F (2014)
Min Temperature 10 °F 12 °F -1 °F (1983)
Degree Days  
Heating Degree Days 44    
Moisture  
Dew Point 24 °F    
Average Humidity 96    
Maximum Humidity 100    
Minimum Humidity 87    
Precipitation  
Precipitation 0.03 in - - ()
Sea Level Pressure  
Sea Level Pressure 29.93 in    
Wind  
Wind Speed 8 mph (SSW)    
Max Wind Speed 17 mph    
Max Gust Speed -    
Visibility 6 miles    
Events Fog , Rain , Snow    
Averages and records for this station are not official NWS values.
T = Trace of Precipitation, MM = Missing Value Source: NWS Daily Summary

Daily Weather History Graph

Daily Weather History Graph

Search for Another Location

Airport or City:

Trip Planner

Search our weather history database for the weather conditions in past years. The results will help you decide how hot, cold, wet, or windy it might be!

Date:

Astronomy

May. 11, 2013 Rise Set
Actual Time 3:14 AM AKDT 12:55 AM AKDT
Civil Twilight Sun does not set Sun does not set
Nautical Twilight Sun does not set Sun does not set
Astronomical Twilight Sun does not set Sun does not set
Moon 3:43 AM AKDT (5/11) 2:28 AM AKDT (5/11)
Length of Visible Light 24h 00m
Length of Day
21h 40m
Waxing Crescent, 3% of the Moon is Illuminated
May 11
Waxing Crescent
May 17
First Quarter
May 24
Full
May 31
Last Quarter
Jun 8
New

Hourly Weather History & Observations

Time (AKDT) Temp. Windchill Dew Point Humidity Pressure Visibility Wind Dir Wind Speed Gust Speed Precip Events Conditions
12:00 AM 19.4 °F 10.4 °F 19.4 °F 100% 30.04 in 1.5 mi South 6.9 mph - N/A   Clear
12:04 AM 19.4 °F 10.4 °F 19.4 °F 100% 30.04 in 3.0 mi South 6.9 mph - N/A   Clear
12:14 AM 19.4 °F 10.4 °F 19.4 °F 100% 30.04 in 1.8 mi South 6.9 mph - N/A   Clear
12:29 AM 17.6 °F 8.2 °F 17.6 °F 100% 30.04 in 2.0 mi SSW 6.9 mph - N/A   Clear
12:35 AM 17.6 °F 7.3 °F 17.6 °F 100% 30.04 in 0.8 mi South 8.1 mph - N/A   Clear
12:53 AM 14.0 °F 3.9 °F 14.0 °F 100% 30.04 in 0.2 mi South 6.9 mph - N/A Fog Light Freezing Fog
1:20 AM 15.8 °F 10.2 °F 15.8 °F 100% 30.04 in 2.5 mi SW 3.5 mph - 0.00 in   Clear
1:27 AM 15.8 °F 8.6 °F 14.0 °F 93% 30.03 in 8.0 mi SSW 4.6 mph - 0.00 in   Clear
1:33 AM 15.8 °F 8.6 °F 14.0 °F 93% 30.04 in 1.2 mi SSW 4.6 mph - 0.00 in   Clear
1:41 AM 14.0 °F 2.9 °F 12.2 °F 93% 30.03 in 0.2 mi South 8.1 mph - 0.00 in Fog Light Freezing Fog
1:53 AM 15.1 °F 3.3 °F 14.0 °F 95% 30.04 in 0.2 mi South 9.2 mph - 0.00 in Fog Light Freezing Fog
2:14 AM 15.8 °F 5.1 °F 15.8 °F 100% 30.02 in 2.0 mi South 8.1 mph - N/A   Clear
2:21 AM 15.8 °F 4.2 °F 15.8 °F 100% 30.02 in 8.0 mi South 9.2 mph - N/A   Clear
2:53 AM 12.9 °F 1.6 °F 12.0 °F 96% 30.02 in 10.0 mi South 8.1 mph - N/A   Clear
3:53 AM 10.9 °F -2.6 °F 10.0 °F 96% 30.00 in 10.0 mi South 10.4 mph - N/A   Clear
4:53 AM 10.0 °F -1.9 °F 9.0 °F 95% 30.00 in 10.0 mi South 8.1 mph - 0.00 in   Clear
5:53 AM 10.9 °F -0.8 °F 9.0 °F 92% 29.98 in 10.0 mi SSW 8.1 mph - N/A   Clear
6:53 AM 12.9 °F 1.6 °F 12.0 °F 96% 29.97 in 10.0 mi SSW 8.1 mph - N/A   Clear
7:53 AM 18.0 °F 6.9 °F 16.0 °F 92% 29.96 in 10.0 mi SSW 9.2 mph - N/A   Overcast
8:53 AM 21.0 °F 10.6 °F 19.9 °F 96% 29.96 in 10.0 mi South 9.2 mph - N/A   Overcast
9:32 AM 23.0 °F 12.4 °F 21.2 °F 93% 29.95 in 3.0 mi South 10.4 mph - 0.00 in Snow Light Snow
9:50 AM 24.8 °F 14.6 °F 23.0 °F 93% 29.95 in 2.0 mi South 10.4 mph - 0.00 in Snow Light Snow
9:53 AM 24.1 °F 13.7 °F 23.0 °F 96% 29.95 in 2.0 mi South 10.4 mph - 0.00 in Snow Light Snow
9:58 AM 24.8 °F 15.3 °F 23.0 °F 93% 29.95 in 3.0 mi South 9.2 mph - 0.00 in Snow Light Snow
10:05 AM 24.8 °F 14.6 °F 24.8 °F 100% 29.94 in 2.0 mi SSW 10.4 mph - 0.00 in Snow Light Snow
10:14 AM 24.8 °F 14.6 °F 24.8 °F 100% 29.94 in 1.5 mi SSW 10.4 mph - 0.00 in Snow Light Snow
10:22 AM 26.6 °F 16.8 °F 24.8 °F 93% 29.94 in 1.5 mi SSW 10.4 mph - 0.00 in Snow Light Snow
10:36 AM 26.6 °F 16.8 °F 26.6 °F 100% 29.94 in 2.0 mi SSW 10.4 mph - 0.00 in Snow Light Snow
10:44 AM 26.6 °F 17.5 °F 26.6 °F 100% 29.93 in 1.8 mi SSW 9.2 mph - 0.00 in Snow Light Snow
10:53 AM 27.0 °F 17.3 °F 27.0 °F 100% 29.94 in 2.0 mi SSW 10.4 mph - 0.01 in Snow Light Snow
11:08 AM 28.4 °F 19.7 °F 28.4 °F 100% 29.93 in 1.8 mi SSW 9.2 mph - 0.01 in Snow Light Snow
11:26 AM 28.4 °F 19.7 °F 28.4 °F 100% 29.93 in 3.0 mi SSW 9.2 mph - 0.01 in Snow Light Snow
11:39 AM 30.2 °F 21.3 °F 28.4 °F 93% 29.92 in 10.0 mi SSW 10.4 mph - 0.01 in   Overcast
11:53 AM 30.9 °F 21.7 °F 30.0 °F 96% 29.93 in 10.0 mi SSW 11.5 mph - 0.01 in   Overcast
12:53 PM 32.0 °F 23.0 °F 30.9 °F 96% 29.92 in 10.0 mi SW 11.5 mph - N/A   Overcast
1:53 PM 33.1 °F 22.2 °F 30.9 °F 92% 29.91 in 10.0 mi SW 17.3 mph - 0.01 in Rain Light Rain
2:05 PM 33.8 °F 23.2 °F 30.2 °F 87% 29.90 in 8.0 mi SW 17.3 mph - 0.00 in Snow Light Snow
2:15 PM 33.8 °F 23.9 °F 30.2 °F 87% 29.90 in 9.0 mi SW 15.0 mph - 0.00 in Rain Light Rain
2:49 PM 32.0 °F 21.6 °F 30.2 °F 93% 29.90 in 9.0 mi WSW 15.0 mph - 0.00 in   Overcast
2:53 PM 32.0 °F 22.1 °F 30.9 °F 96% 29.90 in 5.0 mi WSW 13.8 mph - 0.00 in Snow Light Snow
3:53 PM 32.0 °F 23.0 °F 30.9 °F 96% 29.89 in 10.0 mi WSW 11.5 mph - 0.00 in   Overcast
4:15 PM 32.0 °F 23.0 °F 30.2 °F 93% 29.88 in 10.0 mi SW 11.5 mph - N/A   Overcast
4:53 PM 32.0 °F 22.1 °F 30.0 °F 92% 29.88 in 10.0 mi WSW 13.8 mph - 0.00 in   Overcast
5:53 PM 32.0 °F 23.0 °F 30.9 °F 96% 29.87 in 9.0 mi WSW 11.5 mph - 0.00 in Snow Light Snow
6:07 PM 32.0 °F 23.0 °F 30.2 °F 93% 29.86 in 9.0 mi West 11.5 mph - 0.00 in   Overcast
6:15 PM 32.0 °F 22.5 °F 30.2 °F 93% 29.86 in 7.0 mi West 12.7 mph - 0.00 in Snow Light Snow
6:31 PM 30.2 °F 19.8 °F 30.2 °F 100% 29.86 in 1.8 mi West 13.8 mph - 0.00 in Snow Light Snow
6:36 PM 30.2 °F 19.8 °F 30.2 °F 100% 29.86 in 2.0 mi West 13.8 mph - 0.00 in Snow Light Snow
6:40 PM 30.2 °F 21.3 °F 30.2 °F 100% 29.85 in 3.0 mi West 10.4 mph - 0.00 in Snow Light Snow
6:51 PM 30.2 °F 21.9 °F 30.2 °F 100% 29.85 in 10.0 mi West 9.2 mph - 0.00 in   Scattered Clouds
6:53 PM 30.9 °F 22.8 °F 30.0 °F 96% 29.86 in 10.0 mi West 9.2 mph - 0.00 in   Scattered Clouds
7:53 PM 30.0 °F 21.1 °F 28.0 °F 92% 29.84 in 10.0 mi WSW 10.4 mph - N/A   Mostly Cloudy
8:53 PM 28.9 °F 21.1 °F 28.0 °F 96% 29.83 in 10.0 mi SW 8.1 mph - N/A   Overcast
9:53 PM 30.0 °F 23.2 °F 28.0 °F 92% 29.82 in 10.0 mi SW 6.9 mph - N/A   Overcast
10:51 PM 28.4 °F - 28.4 °F 100% 29.80 in 7.0 mi Calm Calm - 0.00 in   Overcast
10:53 PM 28.9 °F - 28.0 °F 96% 29.80 in 6.0 mi Calm Calm - 0.00 in   Overcast
11:39 PM 28.4 °F - 28.4 °F 100% 29.78 in 2.5 mi Calm Calm - 0.00 in Snow Light Snow
11:43 PM 28.4 °F - 28.4 °F 100% 29.78 in 3.0 mi Calm Calm - 0.00 in Snow Light Snow
11:53 PM 28.9 °F 25.2 °F 28.0 °F 96% 29.78 in 6.0 mi ENE 3.5 mph - 0.00 in Snow Light Snow